Find Starlink 30275

NORAD ID: 57667 Int'l Des: 2023-124 Owner: SPXS Country: US Constellation: starlink operational
LEOCIRCULAR

Current View

Loading 3D Globe...

About Starlink 30275

Starlink 30275 (NORAD 57667) is a starlink constellation satellite (v2 mini) launched Aug 22, 2023 by SPXS of US. It operates in LEO, CIRCULAR orbit with a mass of 730.00 kg.

About Starlink 30275

Description loading...

Upcoming Passes

Passes for default location (London). Set your location on the main map for personalized predictions.

Altitude History

Loading altitude history...

Two-Line Element Set

1 57667U 23124E 26171.41668980 -.00020874 00000-0 -60837-3 0 9992
2 57667 53.1601 89.8559 0000742 74.2477 161.8709 15.34401115 5896
Epoch: Jun 20, 2026 • Age: 16 hours

Current Status

Altitude 466.2 km
Velocity 7.64 km/s
Sub-Earth Point 41.29°N, 177.96°W
Launch Date Aug 22, 2023
Age 2.8 years
Type internet

Technical Details

Classification Payload
Mass 730.00 kg
Dry Mass 700.00 kg
Total Mass 730.00 kg
Length 0.30 m
Diameter 4.10 m
Span 29.00 m
Shape Box + pan
Manufacturer SPXS
Bus Type Starlink V2M
Phase Status In Orbit
Owner/State SPXS/US

Most Searched